Weather History for KPUB - December, 2013

Change the Weather History Date:

Sunday, December 22, 2013

  Actual Average Record
Temperature  
Mean Temperature 31 °F 29 °F  
Max Temperature 42 °F 45 °F 75 °F (1955)
Min Temperature 20 °F 13 °F -23 °F (1990)
Degree Days  
Heating Degree Days 34 36  
Month to date heating degree days 767 764  
Since 1 July heating degree days 1950 2045  
Cooling Degree Days 0 0  
Month to date cooling degree days 0 0  
Year to date cooling degree days 1230 897  
Moisture  
Dew Point 14 °F    
Average Humidity 55    
Maximum Humidity 88    
Minimum Humidity 22    
Precipitation  
Precipitation T in 0.02 in 0.25 in (2011)
Month to date precipitation 0.02 0.29  
Year to date precipitation 9.67 12.48  
Snow  
Snow T in 0.10 in 5.40 in (2011)
Month to date snowfall 1.9 3.9  
Since 1 July snowfall 5.6 9.9  
Snow Depth 0.00 in    
Sea Level Pressure  
Sea Level Pressure 30.08 in    
Wind  
Wind Speed 6 mph (WSW)    
Max Wind Speed 18 mph    
Max Gust Speed 25 mph    
Visibility 9 miles    
Events Snow    
T = Trace of Precipitation, MM = Missing Value Source: NWS Daily Summary

Daily Weather History Graph

Daily Weather History Graph

Search for Another Location

Airport or City:

Trip Planner

Search our weather history database for the weather conditions in past years. The results will help you decide how hot, cold, wet, or windy it might be!

Date:

Astronomy

Dec. 22, 2013 Rise Set
Actual Time 7:11 AM MST 4:41 PM MST
Civil Twilight 6:42 AM MST 5:11 PM MST
Nautical Twilight 6:08 AM MST 5:44 PM MST
Astronomical Twilight 5:36 AM MST 6:16 PM MST
Moon 9:52 PM MST (12/22) 10:12 AM MST (12/22)
Length of Visible Light 10h 29m
Length of Day
9h 29m
Waning Gibbous, 76% of the Moon is Illuminated
Dec 22
Waning Gibbous
Dec 25
Last Quarter
Jan 1
New
Jan 7
First Quarter
Jan 15
Full

Hourly Weather History & Observations

Time (MST) Temp. Windchill Dew Point Humidity Pressure Visibility Wind Dir Wind Speed Gust Speed Precip Events Conditions
12:53 AM 21.9 °F 17.2 °F 12.9 °F 68% 29.95 in 10.0 mi NNW 3.5 mph - N/A   Mostly Cloudy
1:53 AM 21.9 °F 12.5 °F 16.0 °F 78% 29.99 in 10.0 mi North 8.1 mph - N/A   Mostly Cloudy
2:53 AM 26.1 °F - 19.0 °F 75% 30.01 in 10.0 mi Calm Calm - N/A   Overcast
3:51 AM 24.8 °F 19.1 °F 19.4 °F 80% 29.98 in 2.5 mi SSE 4.6 mph - 0.00 in Snow Light Snow
3:53 AM 25.0 °F 19.3 °F 19.9 °F 81% 30.03 in 3.0 mi South 4.6 mph - 0.00 in Snow Light Snow
4:25 AM 25.0 °F 20.7 °F 19.0 °F 78% 29.98 in 10.0 mi SSW 3.5 mph - 0.00 in   Overcast
4:53 AM 24.1 °F - 19.0 °F 81% 30.05 in 10.0 mi Calm Calm - 0.00 in   Overcast
5:53 AM 21.0 °F 14.6 °F 17.1 °F 85% 30.09 in 9.0 mi NW 4.6 mph - N/A   Mostly Cloudy
6:53 AM 23.0 °F - 19.0 °F 85% 30.11 in 9.0 mi Calm Calm - N/A   Overcast
7:53 AM 21.9 °F 17.2 °F 17.1 °F 82% 30.13 in 8.0 mi West 3.5 mph - N/A   Clear
8:53 AM 27.0 °F - 19.0 °F 72% 30.14 in 10.0 mi Calm Calm - N/A   Clear
9:53 AM 30.0 °F 26.5 °F 19.9 °F 66% 30.15 in 10.0 mi Variable 3.5 mph - N/A   Clear
10:53 AM 33.1 °F 27.7 °F 19.9 °F 59% 30.14 in 10.0 mi SSE 5.8 mph - N/A   Clear
11:53 AM 36.0 °F 29.6 °F 19.0 °F 50% 30.11 in 10.0 mi South 8.1 mph - N/A   Clear
12:53 PM 39.0 °F 35.7 °F 17.1 °F 41% 30.06 in 10.0 mi South 4.6 mph - N/A   Clear
1:53 PM 42.1 °F 36.1 °F 12.9 °F 31% 30.03 in 10.0 mi South 10.4 mph - N/A   Clear
2:53 PM 42.1 °F 37.7 °F 10.0 °F 27% 30.01 in 10.0 mi South 6.9 mph - N/A   Clear
3:53 PM 42.1 °F 37.1 °F 7.0 °F 24% 30.01 in 10.0 mi SSE 8.1 mph - N/A   Clear
4:53 PM 37.9 °F 34.4 °F 8.1 °F 29% 30.04 in 10.0 mi East 4.6 mph - N/A   Clear
5:53 PM 32.0 °F 26.4 °F 6.1 °F 34% 30.08 in 10.0 mi NW 5.8 mph - N/A   Clear
6:53 PM 35.1 °F 32.2 °F 7.0 °F 31% 30.07 in 10.0 mi West 3.5 mph - N/A   Clear
7:53 PM 36.0 °F 26.0 °F 8.1 °F 31% 30.11 in 10.0 mi WNW 17.3 mph 25.3 mph N/A   Clear
8:53 PM 27.0 °F 17.3 °F 9.0 °F 47% 30.14 in 10.0 mi North 10.4 mph - N/A   Clear
9:53 PM 21.9 °F - 9.0 °F 58% 30.17 in 10.0 mi Calm Calm - N/A   Clear
10:53 PM 25.0 °F 14.8 °F 10.0 °F 53% 30.17 in 10.0 mi NW 10.4 mph - N/A   Clear
11:53 PM 30.9 °F 20.7 °F 8.1 °F 38% 30.15 in 10.0 mi WNW 13.8 mph - N/A   Clear